Location: Windsor
(43.2292°N, 89.3015°W)
Time: 04:17:41
(UTC+00:00)

BEESAT - Pass Details

Date: 03 July 2022
Orbit: 700 x 706 km, 98.6° (Epoch: 07 August)

Event Time Altitude Azimuth Distance (km) Brightness Sun altitude
Rises 03:33:36 0° 0° (N) 3,104 ? -15.6°
Reaches altitude 10° 03:36:17 10° 346° (NNW) 2,182 ? -15.9°
Maximum altitude 03:39:54 22° 296° (WNW) 1,527 ? -16.2°
Drops below altitude 10° 03:43:30 10° 247° (WSW) 2,174 ? -16.6°
Sets 03:46:10 0° 232° (SW) 3,088 ? -16.9°
